Location: Seattle
(47.6064°N, 122.3308°W)
Time: 14:50:28
(UTC-08:00)

S-56A Canister/Altair - Pass Details

Date: 06 October 2022
Orbit: 638 x 2494 km, 38.9° (Epoch: 03 December)

Event Time Altitude Azimuth Distance (km) Brightness Sun altitude
Exits shadow 02:52:02 26° 114° (ESE) 2,492 10.1 -41.0°
Drops below altitude 10° 02:55:01 10° 102° (ESE) 3,252 10.9 -40.7°
Sets 02:57:29 0° 97° (E) 4,002 11.6 -40.4°
